User: anonymous   Login
Location: ČR
(50.0000°N, 15.0000°E)
Time: 14:18:30
(UTC+00:00)
Language:

A-11 Canister half - Orbit

View from above orbital plane
View from above orbital plane
View from above satellite
View from above satellite

Ground track
Ground track

The orbit data is extracted from the following two-line orbital elements,

1 00051U 60009C   21297.93636084 -.00000093  00000-0 -82503-4 0  9997
2 00051  47.2125 257.6131 0105839 194.1616 165.6195 12.18272246724379
Epoch (UTC): 24 October 2021 22:28:21
Eccentricity: 0.0105839
inclination: 47.2125°
perigee height: 1515 km
apogee height: 1684 km
right ascension of ascending node: 257.6131°
argument of perigee: 194.1616°
revolutions per day: 12.18272246
mean anomaly at epoch: 165.6195°
orbit number at epoch: 72437

The dashed part of the orbit path shows where the satellite is in the earth's shadow,  

DLR